Date String (YYYY-MM-DD hh:mm:ss) UTC,Instrument flags,Ambient pressure (hPa),Sample flow (lpm),Bypass flow (lpm),Sample temperature (°C),Ambient temperature (°C),ASC tube jacket temperature (°C),LED temperature (°C),Box temperature (°C),Sample RH (%),Span deviation,Mass concentration (μg/m³),Mass concentration (μg/m³),Mass concentration (μg/m³)
DateTimeUTC,F1_M11,P_M11,Q1_M11,Q2_M11,T1_M11,T2_M11,T3_M11,T4_M11,T5_M11,U1_M11,ZSPAN_M11,X2_M11,X0_M11,X1_M11
2023-05-10 15:00:00,,0830.3,4.99,0.00,29.3,27.6,00.0,37.7,30.9,27.2,0000.7,0006.93,0013.48,0005.78
2023-05-10 15:01:00,,0830.4,4.99,0.00,29.3,27.6,00.0,37.7,30.9,27.2,0000.8,0006.91,0013.06,0005.77
2023-05-10 15:02:00,,0830.4,5.01,0.00,29.3,27.6,00.0,37.7,30.9,27.3,0000.8,0006.83,0012.91,0005.77
2023-05-10 15:03:00,,0830.5,5.02,0.00,29.3,27.6,00.0,37.7,30.9,27.4,0000.9,0006.84,0012.91,0005.77
2023-05-10 15:04:00,,0830.4,5.00,0.00,29.3,27.6,00.0,37.7,30.9,27.4,0000.8,0006.85,0012.58,0005.76
2023-05-10 15:05:00,,0830.4,4.99,0.00,29.3,27.6,00.0,37.7,30.9,27.5,0000.5,0006.86,0012.80,0005.76
2023-05-10 15:06:00,,0830.4,5.00,0.00,29.3,27.6,00.0,37.7,30.9,27.5,0000.4,0006.86,0013.84,0005.76
2023-05-10 15:07:00,,0830.4,5.02,0.00,29.3,27.6,00.0,37.7,30.9,27.5,0000.5,0006.91,0014.06,0005.77
2023-05-10 15:08:00,,0830.4,5.00,0.00,29.3,27.5,00.0,37.7,30.9,27.5,0000.5,0006.92,0014.60,0005.78
2023-05-10 15:09:00,,0830.4,4.99,0.00,29.3,27.5,00.0,37.7,30.9,27.6,0000.4,0006.97,0015.22,0005.81
2023-05-10 15:10:00,,0830.4,5.00,0.00,29.3,27.5,00.0,37.7,30.9,27.6,0000.2,0007.05,0015.62,0005.83
2023-05-10 15:11:00,,0830.4,5.00,0.00,29.3,27.5,00.0,37.7,30.9,27.7,-000.3,0007.11,0015.77,0005.86
2023-05-10 15:12:00,,0830.4,5.00,0.00,29.3,27.5,00.0,37.7,30.9,27.7,-000.8,0007.17,0015.87,0005.91
2023-05-10 15:13:00,,0830.4,5.00,0.00,29.3,27.5,00.0,37.7,30.9,27.8,-001.3,0007.34,0016.58,0005.96
2023-05-10 15:14:00,,0830.4,5.01,0.00,29.3,27.6,00.0,37.7,30.9,27.9,-001.1,0007.45,0017.02,0006.03
2023-05-10 15:15:00,,0830.4,5.00,0.00,29.3,27.6,00.0,37.7,30.9,27.8,-001.2,0007.58,0017.24,0006.16
2023-05-10 15:16:00,,0830.7,5.01,0.00,29.3,27.6,00.0,37.7,30.9,27.8,-001.2,0007.77,0016.98,0006.30
2023-05-10 15:17:00,,0830.5,5.01,0.00,29.3,27.6,00.0,37.7,30.9,27.7,-001.0,0007.88,0016.39,0006.43
2023-05-10 15:18:00,,0830.4,4.99,0.00,29.3,27.6,00.0,37.7,30.9,27.8,-001.0,0007.98,0016.08,0006.56
2023-05-10 15:19:00,,0830.5,4.99,0.00,29.3,27.6,00.0,37.7,30.9,27.7,-001.3,0008.13,0015.82,0006.68
2023-05-10 15:20:00,,0830.5,5.00,0.00,29.3,27.6,00.0,37.7,30.9,27.6,-001.2,0008.17,0015.62,0006.78
2023-05-10 15:21:00,,0830.4,5.00,0.00,29.3,27.6,00.0,37.7,30.9,27.6,-001.1,0008.24,0015.87,0006.89
2023-05-10 15:22:00,,0830.6,4.99,0.00,29.3,27.6,00.0,37.7,30.9,27.6,-000.9,0008.27,0016.07,0006.94
2023-05-10 15:23:00,,0830.4,5.00,0.00,29.3,27.6,00.0,37.7,30.9,27.7,-000.6,0008.31,0016.69,0006.98
2023-05-10 15:24:00,,0830.5,5.00,0.00,29.3,27.6,00.0,37.7,30.9,27.6,-000.2,0008.26,0016.25,0007.00
2023-05-10 15:25:00,,0830.7,5.00,0.00,29.3,27.6,00.0,37.7,30.9,27.5,-000.1,0008.22,0016.01,0006.98
2023-05-10 15:26:00,,0830.6,5.00,0.00,29.3,27.6,00.0,37.7,30.9,27.5,0000.1,0008.12,0015.70,0006.92
2023-05-10 15:27:00,,0830.4,5.01,0.00,29.3,27.6,00.0,37.7,30.9,27.6,0000.3,0008.02,0016.07,0006.87
2023-05-10 15:28:00,,0830.4,4.99,0.00,29.3,27.6,00.0,37.7,30.9,27.6,0000.1,0007.95,0016.12,0006.81
2023-05-10 15:29:00,,0830.7,4.99,0.00,29.3,27.6,00.0,37.7,30.9,27.5,0000.1,0007.85,0016.65,0006.70
2023-05-10 15:30:00,,0830.5,5.00,0.00,29.3,27.6,00.0,37.7,30.9,27.4,0000.5,0007.74,0017.14,0006.61
2023-05-10 15:31:00,,0830.5,5.01,0.00,29.3,27.6,00.0,37.7,30.9,27.3,0000.6,0007.67,0017.85,0006.51
2023-05-10 15:32:00,,0830.4,4.99,0.00,29.2,27.5,00.0,37.7,30.9,27.4,0000.7,0007.61,0017.57,0006.40
2023-05-10 15:33:00,,0830.4,5.00,0.00,29.2,27.5,00.0,37.7,30.9,27.6,0000.9,0007.58,0017.36,0006.34
2023-05-10 15:34:00,,0830.5,4.99,0.00,29.2,27.5,00.0,37.7,30.9,27.6,0000.9,0007.54,0016.92,0006.28
2023-05-10 15:35:00,,0830.5,5.00,0.00,29.2,27.5,00.0,37.7,30.9,27.6,0000.9,0007.47,0017.87,0006.21
2023-05-10 15:36:00,,0830.6,5.00,0.00,29.2,27.5,00.0,37.6,30.9,27.7,0000.7,0007.46,0018.14,0006.19
2023-05-10 15:37:00,,0830.6,5.00,0.00,29.2,27.5,00.0,37.6,30.9,27.7,0000.3,0007.46,0018.65,0006.16
2023-05-10 15:38:00,,0830.6,5.01,0.00,29.2,27.5,00.0,37.6,30.9,27.7,0000.3,0007.38,0018.82,0006.11
2023-05-10 15:39:00,,0830.7,5.00,0.00,29.2,27.5,00.0,37.6,30.9,27.7,0000.4,0007.36,0018.65,0006.08
2023-05-10 15:40:00,,0830.7,4.99,0.00,29.2,27.5,00.0,37.6,30.9,27.7,0000.1,0007.40,0018.30,0006.08
2023-05-10 15:41:00,,0830.7,5.01,0.00,29.2,27.5,00.0,37.6,30.9,27.7,0000.0,0007.42,0017.63,0006.06
2023-05-10 15:42:00,,0830.7,4.99,0.00,29.2,27.5,00.0,37.6,30.9,27.6,0000.1,0007.43,0018.11,0006.08
2023-05-10 15:43:00,,0830.7,4.99,0.00,29.2,27.5,00.0,37.6,30.8,27.3,0000.2,0007.44,0018.69,0006.14
2023-05-10 15:44:00,,0830.6,5.00,0.00,29.2,27.5,00.0,37.6,30.9,27.3,0000.2,0007.48,0018.79,0006.21
2023-05-10 15:45:00,,0830.6,5.01,0.00,29.2,27.5,00.0,37.6,30.8,27.2,0000.1,0007.54,0018.97,0006.29
2023-05-10 15:46:00,,0830.6,4.99,0.00,29.2,27.5,00.0,37.6,30.9,27.3,-000.3,0007.65,0018.17,0006.39
2023-05-10 15:47:00,,0830.6,5.00,0.00,29.2,27.5,00.0,37.6,30.8,27.4,-000.5,0007.71,0018.05,0006.46
2023-05-10 15:48:00,,0830.5,4.99,0.00,29.2,27.5,00.0,37.6,30.8,27.5,-000.2,0007.74,0017.74,0006.52
2023-05-10 15:49:00,,0830.6,4.99,0.00,29.2,27.5,00.0,37.6,30.8,27.6,-000.2,0007.81,0017.22,0006.58
2023-05-10 15:50:00,,0830.5,5.01,0.00,29.2,27.5,00.0,37.6,30.9,27.6,0000.1,0007.92,0017.73,0006.64
2023-05-10 15:51:00,,0830.6,5.02,0.00,29.2,27.5,00.0,37.6,30.9,27.7,0000.1,0008.01,0018.43,0006.72
2023-05-10 15:52:00,,0830.5,5.00,0.00,29.2,27.6,00.0,37.6,30.9,27.8,-000.1,0008.06,0018.56,0006.80
2023-05-10 15:53:00,,0830.5,4.99,0.00,29.2,27.6,00.0,37.6,30.9,27.7,-000.4,0008.12,0017.72,0006.85
2023-05-10 15:54:00,,0830.4,4.99,0.00,29.2,27.6,00.0,37.6,30.8,27.7,-000.5,0008.20,0017.39,0006.89
2023-05-10 15:55:00,,0830.4,4.99,0.00,29.2,27.6,00.0,37.6,30.9,27.9,-000.2,0008.25,0017.53,0006.90
2023-05-10 15:56:00,,0830.4,5.01,0.00,29.2,27.6,00.0,37.6,30.9,27.9,-000.1,0008.26,0017.30,0006.91
2023-05-10 15:57:00,,0830.4,5.01,0.00,29.2,27.6,00.0,37.6,30.9,27.8,0000.2,0008.26,0017.06,0006.89
2023-05-10 15:58:00,,0830.4,4.99,0.00,29.2,27.6,00.0,37.6,30.9,27.8,0000.5,0008.28,0017.15,0006.89
2023-05-10 15:59:00,,0830.4,4.99,0.00,29.2,27.6,00.0,37.6,30.9,27.8,0000.5,0008.35,0017.43,0006.93
